This demonstration page uses our WeatherBlox Daily Observations layout. Learn more.

41.55636, -103.73856

Hourly Observations for March 29, 2019

Temp ( °F °C ) Dew Point ( °F °C ) Humidity (%) Winds ( mph kmh ) Pressure ( in mb ) Visibility ( mi km ) Precip ( " mm )
12:53 am 00:53 Cloudy 41 5 33 0.6 73 73 ESE 9 15 30.09 1019 10 16.09344 0 0
1:53 am 01:53 Cloudy 40 4.4 33 0.6 77 77 ESE 13 20 30.09 1019 10 16.09344 0 0
2:53 am 02:53 Cloudy 38 3.3 36 2.2 93 93 ESE 13 20 30.06 1018 10 16.09344 0.001 0.001
3:04 am 03:04 Cloudy 37 3 36 2 93 93 E 14 22 30.12 1020 10 16.09344 0 0
3:53 am 03:53 Cloudy with Light Rain 37 2.8 36 2.2 96 96 ESE 9 15 30.06 1018 10 16.09344 0.001 0.001
4:34 am 04:34 Cloudy with Light Rain 37 2.8 36 2.2 96 96 E 9 15 30.12 1020 10 16.09344 0.01 0.254
4:53 am 04:53 Cloudy 37 2.8 36 2.2 96 96 ESE 13 20 30.03 1017 10 16.09344 0.01 0.254
5:31 am 05:31 Cloudy with Light Rain 36 2.2 36 2.2 100 100 ESE 13 20 30.12 1020 3 4.828032 0.001 0.001
5:53 am 05:53 Cloudy 36 2.2 36 2.2 100 100 ESE 14 22 30.06 1018 7 11.265408 0.001 0.001
6:53 am 06:53 Cloudy 35 1.7 35 1.7 100 100 ESE 13 20 30.03 1017 10 16.09344 0 0
7:33 am 07:33 Cloudy with Light Rain 35 1.7 35 1.7 100 100 ESE 16 26 30.12 1020 2.5 4.02336 0.01 0.254
7:40 am 07:40 Cloudy with Light Rain 36 2 36 2 100 100 SE 13 20 30.12 1020 8 12.874752 0 0
7:53 am 07:53 Cloudy with Mist and Fog 35 1.7 35 1.7 100 100 SE 10 17 30.06 1018 6 9.656064 0.02 0.508
8:41 am 08:41 Cloudy with Light Rain 36 2.2 36 2.2 100 100 SE 14 22 30.12 1020 10 16.09344 0.001 0.001
8:53 am 08:53 Cloudy with Light Rain 36 2.2 36 2.2 100 100 SE 15 24 30.03 1017 9 14.484096 0.001 0.001
9:53 am 09:53 Cloudy with Light Rain 35 1.7 35 1.7 100 100 ESE 15 24 30.03 1017 8 12.874752 0.01 0.254
10:53 am 10:53 Cloudy with Light Rain 35 1.7 35 1.7 100 100 ESE 12 19 30.03 1017 10 16.09344 0.001 0.001
11:13 am 11:13 Cloudy with Light Snow 35 1.7 35 1.7 100 100 ESE 12 19 30.12 1020 2.5 4.02336 0.001 0.001
11:23 am 11:23 Cloudy with Light Snow 34 1.1 34 1.1 100 100 E 12 19 30.12 1020 1.75 2.816352 0.001 0.001
11:30 am 11:30 Cloudy with Light Snow 36 2 36 2 100 100 E 12 19 30.12 1020 2.5 4.02336 0 0
11:38 am 11:38 Cloudy with Light Snow 34 1 34 1 100 100 E 14 22 30.12 1020 4 6.437376 0 0
11:53 am 11:53 Cloudy with Light Snow 34 1.1 34 1.1 100 100 E 10 17 30.06 1018 2.5 4.02336 0.01 0.254
12:00 pm 12:00 Mostly Cloudy with Scattered Snow Showers 34 1 34 1 100 100 E 13 20 30.12 1020 0.75 1.207008 0 0
12:22 pm 12:22 Cloudy with Light Snow 34 1 34 1 100 100 ENE 12 19 30.12 1020 1.25 2.01168 0 0
12:37 pm 12:37 Cloudy with Light Snow 36 2 N/A N/A ENE 12 19 30.12 1020 3 4.828032 0.01 0.254
12:53 pm 12:53 Cloudy with Light Snow 36 2 N/A N/A E 9 15 30.03 1017 4 6.437376 0.01 0.254
1:20 pm 13:20 Cloudy with Light Snow 36 2 N/A N/A E 9 15 30.12 1020 2.5 4.02336 0.001 0.001
1:34 pm 13:34 Cloudy with Light Snow 37 3 N/A N/A E 13 20 30.09 1019 5 8.04672 0 0
1:53 pm 13:53 Cloudy 37 3 N/A N/A ESE 12 19 30.03 1017 10 16.09344 0.01 0.254
2:19 pm 14:19 Cloudy 37 3 N/A N/A E 7 11 30.09 1019 10 16.09344 0 0
2:53 pm 14:53 Cloudy 37 3 N/A N/A E 7 11 30.03 1017 10 16.09344 0 0
3:36 pm 15:36 Cloudy 37 3 N/A N/A E 7 11 30.09 1019 10 16.09344 0 0
3:53 pm 15:53 Cloudy 37 3 N/A N/A NE 8 13 30.06 1018 10 16.09344 0 0
4:53 pm 16:53 Cloudy with Light Rain 37 3 N/A N/A N 10 17 30.09 1019 8 12.874752 0.001 0.001
5:25 pm 17:25 Cloudy with Light Rain 37 3 N/A N/A N 8 13 30.12 1020 9 14.484096 0.001 0.001
5:45 pm 17:45 Cloudy with Light Snow 36 2 N/A N/A NNE 8 13 30.18 1022 2.5 4.02336 0.01 0.254
5:47 pm 17:47 Cloudy with Light Snow 36 2 N/A N/A NNE 9 15 30.18 1022 3 4.828032 0.01 0.254
5:53 pm 17:53 Cloudy with Light Snow 36 2 N/A N/A N 9 15 30.12 1020 3 4.828032 0.01 0.254
6:07 pm 18:07 Cloudy with Light Snow 36 2 N/A N/A NNE 7 11 30.18 1022 1.75 2.816352 0.001 0.001
6:16 pm 18:16 Cloudy with Light Snow 36 2 N/A N/A NNE 8 13 30.18 1022 2 3.218688 0 0
6:30 pm 18:30 Cloudy with Light Snow 36 2 N/A N/A NNE 10 17 30.18 1022 5 8.04672 0 0
6:53 pm 18:53 Cloudy with Light Snow 36 2 N/A N/A NNE 15 24 30.12 1020 5 8.04672 0.01 0.254
7:15 pm 19:15 Cloudy with Light Snow 36 2 N/A N/A NNE 12 19 30.21 1023 7 11.265408 0.001 0.001
7:50 pm 19:50 Cloudy 36 2 N/A N/A N 9 15 30.21 1023 10 16.09344 0 0
7:53 pm 19:53 Cloudy 36 2 N/A N/A N 10 17 30.18 1022 10 16.09344 0.001 0.001
8:28 pm 20:28 Cloudy with Light Snow 34 1 N/A N/A N 12 19 30.24 1024 2.5 4.02336 0.001 0.001
8:39 pm 20:39 Cloudy with Light Snow 34 1 N/A N/A N 12 19 30.27 1025 1.5 2.414016 0.01 0.254
8:53 pm 20:53 Cloudy with Light Snow 34 1 N/A N/A N 10 17 30.21 1023 2 3.218688 0.01 0.254
9:27 pm 21:27 Cloudy with Light Snow 34 1 N/A N/A N 12 19 30.3 1026 2.5 4.02336 0.001 0.001
9:40 pm 21:40 Cloudy with Light Snow 34 1 N/A N/A NNE 10 17 30.3 1026 2.5 4.02336 0 0
9:53 pm 21:53 Cloudy with Light Snow 34 1 N/A N/A NNE 8 13 30.27 1025 2 3.218688 0.01 0.254
10:25 pm 22:25 Cloudy with Light Snow 34 1 N/A N/A N 7 11 30.33 1027 3 4.828032 0.01 0.254
10:53 pm 22:53 Cloudy with Light Snow 34 1 N/A N/A NNE 6 9 30.3 1026 5 8.04672 0.01 0.254
11:53 pm 23:53 Cloudy 34 1 N/A N/A WNW 5 7 30.3 1026 10 16.09344 0.001 0.001

Powered by AerisWeather